Flag for Portugal Weather past 2 weeks in Funchal, Madeira, Portugal

Now
70 °F

Passing clouds.


Feels Like: 70 °F
Forecast: 73 / 77 °F
Wind: 10 mph from Northeast

Location: Aeroporto Da Madeira

Current Time: Oct 1, 2014 at 6:43:03 AM

Latest Report: Oct 1, 2014 at 5:30 AM


Visibility: N/A

Pressure: 30.15 "Hg

Humidity: 73%

Dew point: 61 °F

Location of FunchalLocation

Historic Weather in Funchal — Graph

°F

Funchal temperature yesterday

Maximum temperature yesterday: 75 °F (at 2:00 PM)
Minimum temperature yesterday: 66 °F (at 2:30 AM)
Average temperature yesterday: 70 °F

Past Weeks' High & Low Weather Summary

 TemperatureHumidityPressure
High79 °F (Sep 16, 2:00 PM)83% (Sep 16, 6:00 AM)30.27 "Hg (Sep 16, 6:00 AM)
Low64 °F (Sep 21, 2:00 AM)53% (Sep 18, 6:00 PM)29.77 "Hg (Sep 16, 5:00 AM)
Average70 °F68%30.08 "Hg
* Reported Sep 16 5:00 AM — Oct 1 5:30 AM, Funchal, Weather by CustomWeather, © 2014

Note: Actual official high and low records may vary slightly from our data, if they occured in-between our weather recording intervals... More about our weather records

Advertising

Funchal weather history for previous 24 hours

 ConditionsComfort  
Time TempWeatherWind HumidityBarometerVisibility
5:30 AM
Oct 1
70 °FPassing clouds.10 mph73%30.15 "HgN/A
5:00 AM70 °FPassing clouds.10 mph73%30.15 "HgN/A
4:30 AM70 °FPassing clouds.10 mph73%30.15 "HgN/A
4:00 AM70 °FPassing clouds.8 mph69%30.15 "HgN/A
3:30 AM70 °FPassing clouds.9 mph69%30.18 "HgN/A
3:00 AM70 °FPassing clouds.9 mph69%30.18 "HgN/A
2:30 AM70 °FPassing clouds.12 mph73%30.18 "HgN/A
2:00 AM70 °FPassing clouds.12 mph73%30.18 "HgN/A
1:30 AM70 °FPassing clouds.7 mph73%30.18 "HgN/A
1:00 AM70 °FPassing clouds.10 mph73%30.18 "HgN/A
12:30 AM70 °FPassing clouds.10 mph73%30.21 "HgN/A
12:00 AM70 °FPassing clouds.8 mph73%30.21 "HgN/A
11:30 PM
Sep 30
70 °FPassing clouds.9 mph73%30.21 "HgN/A
11:00 PM70 °FPassing clouds.9 mph73%30.21 "HgN/A
10:30 PM70 °FPassing clouds.8 mph73%30.21 "HgN/A
10:00 PM70 °FPassing clouds.7 mph69%30.21 "HgN/A
9:30 PM70 °FPassing clouds.7 mph73%30.21 "HgN/A
9:00 PM70 °FPassing clouds.8 mph73%30.21 "HgN/A
8:30 PM70 °FPassing clouds.6 mph73%30.18 "HgN/A
8:00 PM70 °FPassing clouds.6 mph73%30.18 "HgN/A
7:30 PM72 °FPassing clouds.8 mph65%30.18 "HgN/A
7:00 PM73 °FScattered clouds.7 mph61%30.18 "HgN/A
6:30 PM73 °FScattered clouds.9 mph61%30.18 "HgN/A
6:00 PM73 °FScattered clouds.9 mph61%30.18 "HgN/A
5:30 PM73 °FScattered clouds.10 mph61%30.18 "HgN/A
5:00 PM73 °FScattered clouds.10 mph61%30.18 "HgN/A
4:30 PM75 °FScattered clouds.12 mph57%30.18 "HgN/A
4:00 PM75 °FScattered clouds.12 mph57%30.18 "HgN/A
3:30 PM75 °FPassing clouds.12 mph54%30.18 "HgN/A
3:00 PM75 °FPassing clouds.10 mph54%30.21 "HgN/A
2:30 PM75 °FPassing clouds.10 mph54%30.21 "HgN/A
2:00 PM75 °FPassing clouds.9 mph54%30.21 "HgN/A
1:30 PM73 °FPassing clouds.10 mph61%30.24 "HgN/A
1:00 PM73 °FPassing clouds.10 mph61%30.24 "HgN/A
12:30 PM73 °FPassing clouds.9 mph61%30.24 "HgN/A
12:00 PM72 °FPassing clouds.8 mph65%30.24 "HgN/A
11:30 AM73 °FPassing clouds.10 mph61%30.24 "HgN/A
11:00 AM72 °FPassing clouds.10 mph61%30.24 "HgN/A
10:30 AM72 °FPassing clouds.8 mph65%30.24 "HgN/A
10:00 AM72 °FPassing clouds.7 mph65%30.24 "HgN/A
9:30 AM68 °FPassing clouds.8 mph69%30.21 "HgN/A
9:00 AM70 °FPassing clouds.7 mph64%30.21 "HgN/A
8:30 AM66 °FPassing clouds.7 mph73%30.21 "HgN/A
8:00 AM66 °FPassing clouds.6 mph73%30.21 "HgN/A
7:30 AM66 °FPassing clouds.7 mph73%30.21 "HgN/A
7:00 AM66 °FPassing clouds.7 mph73%30.21 "HgN/A
6:30 AM66 °FPassing clouds.5 mph73%30.21 "HgN/A
6:00 AM66 °FPassing clouds.7 mph73%30.21 "HgN/A
Weather by CustomWeather, © 2014

See weather overviewHow to use our weather pages